Location: Córrego Montividiu
(13.2496°S, 48.8603°W)
Time: 12:07:17
(UTC+00:00)

Cosmos 1553 Rocket - Pass Details

Date: 11 March 2026
Orbit: 942 x 1006 km, 82.9° (Epoch: 22 April)

Event Time Altitude Azimuth Distance (km) Brightness Sun altitude
Rises 22:40:10 0° 12° (NNE) 3,649 6.8 -17.3°
Reaches altitude 10° 22:42:46 10° 19° (NNE) 2,717 6.1 -18.0°
Maximum altitude 22:48:38 44° 89° (E) 1,345 4.3 -19.4°
Drops below altitude 10° 22:54:37 10° 159° (SSE) 2,775 6.2 -20.8°
Sets 22:57:17 0° 165° (SSE) 3,735 7.0 -21.5°
